Home   Weather   Macau   Past weeks

Flag for Macau Past Weather in Macau, Macau — Yesterday and Last 2 Weeks

Now
70 °F

Passing clouds.


Feels Like: 70 °F
Forecast: 71 / 76 °F
Wind: 8 mph from North

Location: Taipa

Current Time: Apr 23, 2017 at 8:05:22 pm

Latest Report: Apr 23, 2017 at 7:30 pm


Visibility: N/A

Pressure: 29.95 "Hg

Humidity: 88%

Dew Point: 66 °F

Location of MacauLocation

Past Weather in Macau — Graph

°F

Macau Temperature Yesterday

Maximum temperature yesterday: 72 °F (at 12:00 am)
Minimum temperature yesterday: 63 °F (at 11:40 am)
Average temperature yesterday: 69 °F

High & Low Weather Summary for the Past Weeks

 TemperatureHumidityPressure
High84 °F (Apr 18, 12:00 pm)100% (Apr 9, 3:30 am)30.09 "Hg (Apr 9, 3:30 am)
Low63 °F (Apr 22, 11:40 am)64% (Apr 22, 9:30 am)29.62 "Hg (Apr 10, 4:00 pm)
Average74 °F88%29.85 "Hg
* Reported Apr 8 6:00 pm — Apr 23 6:30 pm, Macau, Weather by CustomWeather, © 2017

Note: Actual official high and low records may vary slightly from our data, if they occured in-between our weather recording intervals... More about our weather records

Advertising

Macau Weather History for the Previous 24 Hours

Scroll right to see more
 ConditionsComfort  
Time TempWeatherWind HumidityBarometerVisibility
6:30 pm
Sun, Apr 23
70 °FScattered clouds.9 mph83%29.92 "HgN/A
6:00 pm70 °FSprinkles. Scattered clouds.8 mph83%29.92 "Hg6 mi
5:30 pm68 °FSprinkles. Scattered clouds.8 mph88%29.92 "Hg6 mi
5:00 pm68 °FSprinkles. Scattered clouds.8 mph88%29.92 "Hg6 mi
4:30 pm70 °FSprinkles. Scattered clouds.7 mph83%29.92 "Hg4 mi
3:30 pm70 °FSprinkles. Scattered clouds.7 mph83%29.92 "Hg4 mi
3:00 pm70 °FSprinkles. Scattered clouds.7 mph83%29.92 "Hg5 mi
2:30 pm70 °FSprinkles. Scattered clouds.7 mph83%29.92 "Hg5 mi
2:00 pm70 °FSprinkles. Scattered clouds.6 mph78%29.95 "Hg5 mi
1:30 pm70 °FSprinkles. Scattered clouds.5 mph78%29.98 "Hg6 mi
1:00 pm70 °FSprinkles. Scattered clouds.7 mph78%29.98 "Hg6 mi
12:30 pm70 °FScattered clouds.7 mph78%29.98 "HgN/A
12:00 pm70 °FScattered clouds.7 mph78%29.98 "HgN/A
11:30 am70 °FScattered clouds.7 mph78%29.98 "HgN/A
10:30 am70 °FScattered clouds.9 mph83%29.98 "HgN/A
10:00 am70 °FScattered clouds.9 mph78%30.01 "HgN/A
9:30 am70 °FScattered clouds.9 mph78%29.98 "HgN/A
9:00 am70 °FScattered clouds.8 mph78%29.98 "HgN/A
8:30 am70 °FScattered clouds.9 mph78%29.98 "HgN/A
8:00 am70 °FScattered clouds.8 mph78%29.98 "HgN/A
7:30 am70 °FScattered clouds.7 mph78%29.95 "HgN/A
7:00 am70 °FScattered clouds.6 mph78%29.95 "HgN/A
6:30 am70 °FScattered clouds.8 mph78%29.95 "HgN/A
6:00 am70 °FScattered clouds.6 mph78%29.95 "HgN/A
5:30 am70 °FPassing clouds.7 mph78%29.92 "HgN/A
5:00 am70 °FPassing clouds.7 mph78%29.92 "HgN/A
4:30 am70 °FPassing clouds.6 mph78%29.92 "HgN/A
4:00 am70 °FPassing clouds.7 mph78%29.92 "HgN/A
3:30 am70 °FPassing clouds.7 mph78%29.92 "HgN/A
2:30 am70 °FPassing clouds.9 mph78%29.92 "HgN/A
2:00 am70 °FPassing clouds.10 mph78%29.92 "HgN/A
1:30 am70 °FPassing clouds.9 mph73%29.92 "HgN/A
1:00 am70 °FPassing clouds.10 mph73%29.95 "HgN/A
12:30 am70 °FPassing clouds.9 mph73%29.95 "HgN/A
12:00 am70 °FPassing clouds.9 mph78%29.95 "HgN/A
11:30 pm
Sat, Apr 22
70 °FPassing clouds.9 mph78%29.98 "HgN/A
11:00 pm70 °FPassing clouds.12 mph78%29.98 "HgN/A
10:30 pm70 °FPassing clouds.10 mph78%29.98 "HgN/A
10:00 pm70 °FPassing clouds.10 mph78%29.98 "HgN/A
9:30 pm70 °FPassing clouds.14 mph78%29.98 "HgN/A
9:00 pm70 °FPassing clouds.10 mph73%29.95 "HgN/A
8:30 pm70 °FPassing clouds.10 mph73%29.92 "HgN/A
8:00 pm70 °FSprinkles. Passing clouds.12 mph73%29.92 "HgN/A
Weather by CustomWeather, © 2017

See weather overviewHow to use our weather pages